Location: Ahausen
(50.4985°N, 8.2722°E)
Time: 02:48:43
(UTC+00:00)

Cosmos 192 - Visible Passes

Search period start: 10 December 2022 00:00
Search period end: 20 December 2022 00:00
Orbit: 701 x 711 km, 74.0° (Epoch: 09 December)

Date Brightness Start Highest point End Pass type
(mag) Time Alt. Az. Time Alt. Az. Time Alt. Az.
10 Dec 6.0 16:22:12 10° WSW 16:26:29 30° NW 16:30:49 10° N visible
11 Dec 6.8 17:10:05 10° WNW 17:12:32 14° NW 17:15:01 10° N visible
12 Dec 6.2 16:12:23 10° WSW 16:16:23 25° NW 16:20:26 10° N visible
13 Dec 6.9 17:00:53 10° WNW 17:02:33 12° NW 17:04:13 10° NNW visible
14 Dec 6.4 16:02:38 10° W 16:06:18 21° NW 16:10:01 10° N visible
